Tracking 19638 objects as of 19-Apr-2019
HD Live streaming from Space Station
objects crossing your sky now

METEOR 2-17 DEB

Track METEOR 2-17 DEB now!
10-day predictions


NORAD ID: 35367
Int'l Code: 1988-005AB
Perigee: 912.8 km
Apogee: 951.2 km
Inclination: 82.5 °
Period: 103.5 minutes
Semi major axis: 7302 km
RCS: 0.003 m2 (small)
Launch date: January 30, 1988
Source: Commonwealth of Independent States (former USSR) (CIS)
Launch site: PLESETSK MISSILE AND SPACE COMPLEX (PKMTR)

Note: This is SATELLITE DEBRIS
aabbcc
Your satellite tracking list
Your tracking list is empty




NASA's NSSDC Master Catalog

Two Line Element Set (TLE):
1 35367U 88005AB  19109.08479260  .00001475  00000-0  11597-2 0  9993
2 35367  82.5225 224.1710 0026305 222.1273 261.7994 13.91086256817490
Source of the keplerian elements: AFSPC